Weather reports worldwide

Advertisment
Ile Rousse, France (7753): temperature & dewpoint: 27.06.2020 17:00:00 - 03.07.2020 17:00:00 (CEST)Ile Rousse, France (7753): wind speed & gusts: 27.06.2020 17:00:00 - 03.07.2020 17:00:00 (CEST)Ile Rousse, France (7753): wind direction: 27.06.2020 17:00:00 - 03.07.2020 17:00:00 (CEST)Ile Rousse, France (7753): reduced air pressure: 27.06.2020 17:00:00 - 03.07.2020 17:00:00 (CEST)Ile Rousse, France (7753): visibility: 27.06.2020 17:00:00 - 03.07.2020 17:00:00 (CEST)Ile Rousse, France (7753): precipitation: 27.06.2020 17:00:00 - 03.07.2020 17:00:00 (CEST)
Date & Time tt [°C] td [°C] ff [km/h] ff [kn] fx [km/h] fx [kn] dd ppp [hPa] vv [km] rr [mm]
03.07.2020 17:00:00 - - - - - - - - - -
03.07.2020 16:00:00 - - - - - - - - - -
03.07.2020 15:00:00 - - - - - - - - - -
03.07.2020 14:00:00 - - - - - - - - - -
03.07.2020 13:00:00 - - - - - - - - - -
03.07.2020 12:00:00 - - - - - - - - - -
03.07.2020 11:00:00 - - - - - - - - - -
03.07.2020 10:00:00 25,3 19,2 34 18 63 34 W 1010,6 - 0,0
03.07.2020 09:00:00 25,2 18,4 31 17 54 29 WSW 1010,7 - 0,0
03.07.2020 08:00:00 27,2 14,2 38 20 54 29 SW 1010,2 20 0,0
03.07.2020 07:00:00 24,9 17,1 31 17 50 27 WSW 1010,0 - 0,0
03.07.2020 06:00:00 24,3 16,3 19 10 31 17 WSW 1010,1 - 0,0
03.07.2020 05:00:00 24,7 15,1 13 7 25 13 SW 1009,9 - 0,0
03.07.2020 04:00:00 24,4 16,1 8 4 24 13 W 1010,1 - 0,0
03.07.2020 03:00:00 24,6 16,1 7 4 13 7 W 1010,0 - 0,0
03.07.2020 02:00:00 23,8 18,7 5 3 25 14 N 1010,5 - 0,0
03.07.2020 01:00:00 24,2 16,5 17 9 42 23 SW 1010,5 - 0,0
03.07.2020 00:00:00 22,9 20,8 14 8 22 12 WSW 1010,8 - 0,0
02.07.2020 23:00:00 22,6 21,2 5 3 13 7 NW 1011,0 - 0,0
02.07.2020 22:00:00 23,1 21,4 13 7 26 14 NE 1011,0 - 0,0
02.07.2020 21:00:00 23,0 21,4 19 10 35 19 W 1011,0 - 0,0
02.07.2020 20:00:00 24,1 22,0 17 9 38 20 W 1011,1 - 0,0
02.07.2020 19:00:00 25,4 21,5 18 10 25 13 W 1011,1 - 0,0
02.07.2020 18:00:00 26,4 21,6 11 6 34 18 W 1011,0 - 0,0
02.07.2020 17:00:00 25,8 20,8 22 12 36 20 W 1011,1 - 0,0
02.07.2020 16:00:00 26,6 21,4 13 7 23 13 NW 1011,1 - 0,0
02.07.2020 15:00:00 25,4 21,3 11 6 19 11 NNW 1011,2 - 0,0
02.07.2020 14:00:00 25,7 20,9 9 5 21 11 NW 1011,6 - 0,0
02.07.2020 13:00:00 25,5 20,7 12 7 23 12 NW 1011,8 - 0,0
02.07.2020 12:00:00 24,9 20,8 9 5 20 11 NW 1012,0 - 0,0
02.07.2020 11:00:00 23,9 20,0 6 4 16 8 NW 1012,0 - 0,0
02.07.2020 10:00:00 23,2 20,0 7 4 15 8 NNW 1011,7 - 0,0
02.07.2020 09:00:00 23,2 20,2 8 4 16 8 N 1011,6 - 0,0
02.07.2020 08:00:00 22,3 20,4 4 2 10 5 NNE 1011,3 - 0,0
02.07.2020 07:00:00 21,6 20,2 5 3 16 8 W 1011,3 - 0,0
02.07.2020 06:00:00 21,6 18,4 6 3 11 6 W 1010,7 - 0,0
02.07.2020 05:00:00 22,2 17,6 2 1 9 5 N 1010,0 - 0,0
02.07.2020 04:00:00 22,7 17,2 4 2 13 7 ESE 1010,2 - 0,0
02.07.2020 03:00:00 22,6 17,3 10 5 14 7 E 1011,0 - 0,0
02.07.2020 02:00:00 22,5 18,3 12 7 15 8 E 1011,5 - 0,0
02.07.2020 01:00:00 22,3 18,9 9 5 14 8 E 1011,7 - 0,0
02.07.2020 00:00:00 22,4 19,6 11 6 15 8 NE 1011,8 - 0,0
01.07.2020 23:00:00 22,3 18,9 13 7 16 8 E 1011,7 - 0,0
01.07.2020 22:00:00 23,0 19,6 8 5 11 6 E 1011,1 - 0,0
01.07.2020 21:00:00 23,6 18,5 8 4 13 7 ESE 1010,9 - 0,0
01.07.2020 20:00:00 24,2 19,3 9 5 16 8 ENE 1010,7 - 0,0
01.07.2020 19:00:00 24,8 19,4 10 6 19 10 ENE 1010,9 - 0,0
01.07.2020 18:00:00 24,4 18,6 11 6 19 10 NE 1011,5 - 0,0
01.07.2020 17:00:00 24,3 19,8 9 5 19 10 NNE 1012,6 - 0,0
01.07.2020 16:00:00 24,2 19,7 10 6 18 10 N 1013,0 - 0,0
01.07.2020 15:00:00 24,0 19,3 6 4 19 10 NW 1012,4 - 0,0
01.07.2020 14:00:00 23,9 19,4 10 5 22 12 NNE 1012,3 - 0,0
01.07.2020 13:00:00 24,1 18,7 13 7 22 12 NNE 1012,5 - 0,0
01.07.2020 12:00:00 24,2 18,8 9 5 21 11 N 1012,8 - 0,0
01.07.2020 11:00:00 23,3 19,0 9 5 18 10 NW 1013,1 - 0,0
01.07.2020 10:00:00 23,1 18,0 9 5 16 9 NNW 1013,3 - 0,0
01.07.2020 09:00:00 23,1 16,6 7 4 12 7 NW 1013,4 - 0,0
01.07.2020 08:00:00 22,5 14,1 0 0 20 11 N 1013,5 20 0,0
01.07.2020 07:00:00 21,3 14,9 12 6 20 11 WSW 1013,5 - 0,0
01.07.2020 06:00:00 20,6 13,1 3 2 4 2 E 1013,0 - 0,0
01.07.2020 05:00:00 21,4 16,1 0 0 9 5 N 1012,7 - 0,0
01.07.2020 04:00:00 21,5 12,6 6 3 8 4 E 1012,9 - 0,0
01.07.2020 03:00:00 22,2 11,6 4 2 11 6 W 1013,2 - 0,0
01.07.2020 02:00:00 22,6 12,5 5 3 18 10 S 1013,3 - 0,0
01.07.2020 01:00:00 22,1 11,2 13 7 20 11 WSW 1013,6 - 0,0
01.07.2020 00:00:00 22,7 11,1 10 5 24 13 WSW 1013,7 - 0,0
30.06.2020 23:00:00 23,2 10,3 18 10 42 23 WSW 1013,5 - 0,0
30.06.2020 22:00:00 23,2 13,4 23 13 40 21 WSW 1013,1 - 0,0
30.06.2020 21:00:00 23,2 17,2 24 13 48 26 WSW 1012,5 - 0,0
30.06.2020 20:00:00 24,2 18,2 28 15 66 35 WSW 1012,1 - 0,0
30.06.2020 19:00:00 24,7 17,9 41 22 72 39 WSW 1011,5 - 0,0
30.06.2020 18:00:00 25,0 18,0 44 24 74 40 WSW 1011,3 - 0,0
30.06.2020 17:00:00 25,2 17,7 41 22 74 40 WSW 1011,8 - 0,0
30.06.2020 16:00:00 25,7 17,6 44 24 72 39 WSW 1011,7 - 0,0
30.06.2020 15:00:00 25,9 17,0 43 23 76 41 WSW 1011,9 - 0,0
30.06.2020 14:00:00 26,5 15,2 44 24 81 44 WSW 1011,3 21 0,0
30.06.2020 13:00:00 25,7 18,1 44 24 80 43 WSW 1011,4 - 0,0
30.06.2020 12:00:00 24,9 19,9 44 24 74 40 W 1011,4 - 0,0
30.06.2020 11:00:00 25,0 20,0 39 21 66 36 W 1011,4 - 0,0
30.06.2020 10:00:00 25,2 19,3 34 19 61 33 WSW 1011,5 - 0,0
30.06.2020 09:00:00 26,7 16,3 25 14 60 32 WSW 1011,4 - 0,0
30.06.2020 08:00:00 27,3 14,3 39 21 74 40 SW 1011,2 - 0,0
30.06.2020 07:00:00 26,3 13,8 46 25 73 39 SW 1011,1 - 0,0
30.06.2020 06:00:00 26,0 13,8 49 26 74 40 SW 1010,7 - 0,0
30.06.2020 05:00:00 25,8 14,3 48 26 77 42 SW 1010,7 - 0,0
30.06.2020 04:00:00 25,8 14,3 45 25 76 41 SW 1011,0 - 0,0
30.06.2020 03:00:00 25,8 14,9 46 25 72 39 WSW 1011,3 - 0,0
30.06.2020 02:00:00 25,8 15,2 40 22 66 36 WSW 1011,7 - 0,0
30.06.2020 01:00:00 25,3 15,6 34 18 72 39 WSW 1012,1 - 0,0
30.06.2020 00:00:00 25,0 16,2 42 23 73 39 WSW 1011,8 - 0,0
29.06.2020 23:00:00 24,5 17,5 40 22 75 41 W 1011,6 - 0,0
29.06.2020 22:00:00 27,8 13,0 51 28 87 47 WSW 1010,7 - 0,0
29.06.2020 21:00:00 28,0 13,5 49 26 79 43 WSW 1010,5 - 0,0
29.06.2020 20:00:00 27,8 15,1 36 20 68 37 WSW 1010,9 - 0,0
29.06.2020 19:00:00 27,9 18,0 36 20 76 41 WSW 1010,8 - 0,0
29.06.2020 18:00:00 29,9 17,4 34 18 72 39 WSW 1010,8 - 0,0
29.06.2020 17:00:00 28,8 17,7 43 23 69 37 WSW 1011,0 - 0,0
29.06.2020 16:00:00 29,6 17,8 34 19 61 33 WSW 1011,6 - 0,0
29.06.2020 15:00:00 29,1 19,4 38 20 71 38 WSW 1012,1 - 0,0
29.06.2020 14:00:00 30,0 18,1 46 25 72 39 WSW 1012,1 - 0,0
29.06.2020 13:00:00 29,3 18,1 48 26 74 40 WSW 1012,2 - 0,0
29.06.2020 12:00:00 27,1 18,9 37 20 61 33 WSW 1012,5 - 0,0
29.06.2020 11:00:00 27,4 18,1 33 18 56 30 WSW 1012,3 - 0,0
29.06.2020 10:00:00 26,8 17,0 28 15 50 27 WSW 1012,7 - 0,0
29.06.2020 09:00:00 26,5 14,9 24 13 55 30 WSW 1013,1 - 0,0
29.06.2020 08:00:00 25,4 11,6 17 9 29 16 WSW 1013,5 21 0,0
29.06.2020 07:00:00 24,8 11,7 7 4 16 8 WNW 1013,4 - 0,0
29.06.2020 06:00:00 24,3 10,9 8 4 44 24 SSW 1013,3 - 0,0
29.06.2020 05:00:00 24,0 9,2 22 12 35 19 WSW 1013,4 25 0,0
29.06.2020 04:00:00 23,1 10,2 17 9 43 23 SW 1014,3 - 0,0
29.06.2020 03:00:00 22,7 12,6 15 8 29 16 WSW 1014,7 - 0,0
29.06.2020 02:00:00 22,1 17,2 4 2 24 13 WNW 1015,2 - 0,0
29.06.2020 01:00:00 21,8 18,4 12 7 21 11 SW 1015,6 - 0,0
29.06.2020 00:00:00 22,1 18,5 6 4 12 7 SW 1015,3 - 0,0
28.06.2020 23:00:00 22,3 20,6 9 5 21 11 W 1015,7 - 0,0
28.06.2020 22:00:00 22,6 20,3 11 6 21 11 W 1015,6 - 0,0
28.06.2020 21:00:00 23,4 20,1 13 7 22 12 W 1015,4 - 0,0
28.06.2020 20:00:00 25,1 19,9 11 6 21 12 W 1015,1 - 0,0
28.06.2020 19:00:00 26,0 20,8 11 6 18 10 WNW 1015,2 - 0,0
28.06.2020 18:00:00 26,2 21,0 8 5 19 11 NW 1015,6 - 0,0
28.06.2020 17:00:00 26,4 20,9 11 6 24 13 NW 1015,8 20 0,0
28.06.2020 16:00:00 26,4 21,2 14 8 27 15 WNW 1016,1 - 0,0
28.06.2020 15:00:00 25,9 21,6 12 6 23 12 NW 1016,2 - 0,0
28.06.2020 14:00:00 25,3 21,2 14 8 28 15 WNW 1016,3 - 0,0
28.06.2020 13:00:00 25,0 20,9 16 8 27 15 WNW 1016,6 - 0,0
28.06.2020 12:00:00 24,4 20,7 18 10 26 14 W 1016,5 - 0,0
28.06.2020 11:00:00 23,6 20,5 10 5 18 10 WNW 1016,4 - 0,0
28.06.2020 10:00:00 23,5 19,0 5 3 16 9 NW 1016,4 - 0,0
28.06.2020 09:00:00 23,4 17,6 7 4 16 9 NNE 1016,5 - 0,0
28.06.2020 08:00:00 22,7 18,9 10 5 16 9 ENE 1016,4 - 0,0
28.06.2020 07:00:00 21,5 19,2 3 2 27 15 NW 1016,3 - 0,0
28.06.2020 06:00:00 21,2 19,5 19 10 27 14 W 1015,9 - 0,0
28.06.2020 05:00:00 21,3 19,6 20 11 26 14 WSW 1015,7 - 0,0
28.06.2020 04:00:00 21,4 19,0 13 7 17 9 WSW 1015,3 - 0,0
28.06.2020 03:00:00 23,2 16,3 3 1 10 5 E 1015,3 - 0,0
28.06.2020 02:00:00 24,5 8,0 3 2 17 9 WNW 1015,3 - 0,0
28.06.2020 01:00:00 22,1 17,5 14 8 18 10 W 1015,3 - 0,0
28.06.2020 00:00:00 23,6 10,3 5 3 12 6 ESE 1015,3 - 0,0
27.06.2020 23:00:00 23,2 14,5 8 5 14 8 SSE 1015,5 - 0,0
27.06.2020 22:00:00 22,7 16,9 5 3 14 8 ESE 1015,6 - 0,0
27.06.2020 21:00:00 22,8 19,8 12 7 29 16 WSW 1015,7 - 0,0
27.06.2020 20:00:00 23,9 20,6 23 13 35 19 W 1015,3 - 0,0
27.06.2020 19:00:00 25,3 20,1 21 12 33 18 W 1015,2 - 0,0
27.06.2020 18:00:00 26,0 18,9 21 11 44 24 W 1015,0 - 0,0
27.06.2020 17:00:00 25,5 20,5 22 12 41 22 W 1014,8 20 0,0

tt = temperature
td = dewpoint
ff = wind speed
fx = gusts
dd = wind direction
ppp = reduced air pressure
vv = visibility
rr = precipitation

Next stations